Hourly Data Report for August 07, 2016

TORONTO CITY
ONTARIO

43°40'00.000" N
79°24'00.000" W
112.50 m
6158355
71508
XTO

Download Data

Hourly Data (August 2016)
Hourly Data Report for August 7, 2016
TIME
LST
Temp Definition
°C
Dew Point Definition
°C
Rel Hum Definition
%
Precip. Amount Definition
mm

Wind Dir Definition
10's deg

Wind Spd Definition
km/h
Visibility Definition
km
Stn Press Definition
kPa
Hmdx Definition


Wind Chill Definition


Weather Definition


00:00 21.5 11.7 54 0.0 LegendMM LegendMM   99.88     LegendNANA
01:00 20.5 13.0 62 0.0 LegendMM LegendMM   99.89     LegendNANA
02:00 20.1 14.0 68 0.0 LegendMM LegendMM   99.89     LegendNANA
03:00 20.1 12.5 62 0.0 LegendMM LegendMM   99.86     LegendNANA
04:00 19.7 12.3 62 0.0 LegendMM LegendMM   99.90     LegendNANA
05:00 19.0 13.3 70 0.0 LegendMM LegendMM   99.95     LegendNANA
06:00 18.7 13.7 73 0.0 LegendMM LegendMM   99.99     LegendNANA
07:00 19.8 14.5 72 0.0 LegendMM LegendMM   100.03     LegendNANA
08:00 21.6 15.1 66 0.0 LegendMM LegendMM   100.08 26   LegendNANA
09:00 23.3 15.1 60 0.0 LegendMM LegendMM   100.08 27   LegendNANA
10:00 25.3 15.6 55 0.0 LegendMM LegendMM   100.10 30   LegendNANA
11:00 25.9 13.1 45 0.0 LegendMM LegendMM   100.12 29   LegendNANA
12:00 27.0 11.5 38 0.0 LegendMM LegendMM   100.14 29   LegendNANA
13:00 27.9 10.2 33 0.0 LegendMM LegendMM   100.14 29   LegendNANA
14:00 28.0 9.6 32 0.0 LegendMM LegendMM   100.15 29   LegendNANA
15:00 27.5 8.2 29 0.0 LegendMM LegendMM   100.14 28   LegendNANA
16:00 27.5 8.9 31 0.0 LegendMM LegendMM   100.13 28   LegendNANA
17:00 26.7 10.2 35 0.0 LegendMM LegendMM   100.15 28   LegendNANA
18:00 25.7 9.6 36 0.0 LegendMM LegendMM   100.15 27   LegendNANA
19:00 24.4 10.7 42 0.0 LegendMM LegendMM   100.19 26   LegendNANA
20:00 23.1 10.6 45 0.0 LegendMM LegendMM   100.26 25   LegendNANA
21:00 22.0 9.0 43 0.0 LegendMM LegendMM   100.31     LegendNANA
22:00 21.1 10.7 52 0.0 LegendMM LegendMM   100.32     LegendNANA
23:00 20.5 11.3 55 0.0 LegendMM LegendMM   100.33     LegendNANA

Notes on Data Quality.

Legend

  • E = Estimated
  • M = Missing
  • NA = Not Available*
  • [empty] = Indicates an unobserved value
Date modified: